Radiation Dose measured at exhaust stack monitor of Fukushima Daiichi Nuclear Power Station
Date,Time,Unit 5 6 shared exhaust cylinders,Wind Direction,Wind Velocity(m/s)
2021/08/10,00:00,3.9,south,10.2
2021/08/10,00:10,3.8,south,10.9
2021/08/10,00:20,3.8,south,12.8
2021/08/10,00:30,4.0,south,12.2
2021/08/10,00:40,4.1,south,10.7
2021/08/10,00:50,3.8,south,9.3
2021/08/10,01:00,4.1,south,9.2
2021/08/10,01:10,3.9,south,8.5
2021/08/10,01:20,3.9,south,8.3
2021/08/10,01:30,3.9,south,8.5
2021/08/10,01:40,3.9,south,8.7
2021/08/10,01:50,3.9,south,7.8
2021/08/10,02:00,3.9,south,9.5
2021/08/10,02:10,3.8,south,9.5
2021/08/10,02:20,3.8,south,10.0
2021/08/10,02:30,4.0,south,9.0
2021/08/10,02:40,3.7,south,8.4
2021/08/10,02:50,3.9,south,7.7
2021/08/10,03:00,3.8,south,6.7
2021/08/10,03:10,3.7,south,4.1
2021/08/10,03:20,3.8,south-southwest,3.7
2021/08/10,03:30,3.8,south-southwest,3.5
2021/08/10,03:40,3.8,south-southwest,4.7
2021/08/10,03:50,3.8,south-southwest,5.0
2021/08/10,04:00,4.0,south-southwest,6.5
2021/08/10,04:10,3.8,south-southwest,9.1
2021/08/10,04:20,3.7,south-southwest,9.5
2021/08/10,04:30,3.9,south-southwest,8.8
2021/08/10,04:40,3.9,south-southwest,9.8
2021/08/10,04:50,3.9,south-southwest,8.6
2021/08/10,05:00,3.9,south-southwest,8.3
2021/08/10,05:10,3.8,south-southwest,8.1
2021/08/10,05:20,3.9,south,7.8
2021/08/10,05:30,3.8,south,7.8
2021/08/10,05:40,4.0,south,6.8
2021/08/10,05:50,3.8,south,6.6
2021/08/10,06:00,3.7,south,7.3
2021/08/10,06:10,3.8,south-southwest,7.6
2021/08/10,06:20,3.9,south-southwest,8.0
2021/08/10,06:30,4.0,south-southwest,8.3
2021/08/10,06:40,4.1,south,9.1
2021/08/10,06:50,3.8,south,9.2
2021/08/10,07:00,3.8,south,9.5
2021/08/10,07:10,3.8,south,8.7
2021/08/10,07:20,3.9,south,9.2
2021/08/10,07:30,3.8,south,10.2
2021/08/10,07:40,4.0,south,10.9
2021/08/10,07:50,3.8,south,12.7
2021/08/10,08:00,3.9,south,11.6
2021/08/10,08:10,3.8,south,11.7
2021/08/10,08:20,3.9,south-southeast,11.6
2021/08/10,08:30,3.8,south-southeast,10.2
2021/08/10,08:40,3.7,south-southeast,9.8
2021/08/10,08:50,3.8,south,9.9
2021/08/10,09:00,3.8,south,9.7
2021/08/10,09:10,3.8,south,8.5
2021/08/10,09:20,3.9,south,8.8
2021/08/10,09:30,3.9,south,8.0
2021/08/10,09:40,3.8,south-southwest,6.1
2021/08/10,09:50,3.8,south-southwest,5.1
2021/08/10,10:00,3.9,southwest,4.8
2021/08/10,10:10,3.9,southwest,6.0
2021/08/10,10:20,3.8,southwest,7.0
2021/08/10,10:30,4.0,west-southwest,6.5
2021/08/10,10:40,3.8,west-southwest,6.4
2021/08/10,10:50,3.8,west,6.3
2021/08/10,11:00,3.8,west,5.6
2021/08/10,11:10,4.0,west,5.2
2021/08/10,11:20,3.8,west-southwest,7.6
2021/08/10,11:30,3.9,west-southwest,9.6
2021/08/10,11:40,3.9,west-southwest,11.1
2021/08/10,11:50,3.8,west-southwest,9.8
2021/08/10,12:00,4.1,west,6.4
2021/08/10,12:10,3.8,west-southwest,8.5
2021/08/10,12:20,3.8,west-southwest,9.1
2021/08/10,12:30,3.9,west-southwest,9.0
2021/08/10,12:40,3.8,west-southwest,9.0
2021/08/10,12:50,3.7,west,10.0
2021/08/10,13:00,3.8,west-southwest,6.4
2021/08/10,13:10,3.9,west-southwest,7.9
2021/08/10,13:20,3.8,west-northwest,6.6
2021/08/10,13:30,3.9,west,7.1
2021/08/10,13:40,3.8,west,11.1
2021/08/10,13:50,3.9,west-southwest,10.5
2021/08/10,14:00,3.9,west,10.6
2021/08/10,14:10,4.0,west,7.8
2021/08/10,14:20,3.7,west,6.9
2021/08/10,14:30,3.9,west,7.4
2021/08/10,14:40,3.8,west,8.2
2021/08/10,14:50,3.9,west,7.1
2021/08/10,15:00,3.9,west,9.3
2021/08/10,15:10,3.9,west,5.7
2021/08/10,15:20,3.9,west,8.0
2021/08/10,15:30,3.7,west,9.7
2021/08/10,15:40,3.9,west,11.7
2021/08/10,15:50,3.9,west,12.4
2021/08/10,16:00,3.9,west,11.3
2021/08/10,16:10,3.9,west,9.7
2021/08/10,16:20,4.0,west,11.0
2021/08/10,16:30,3.9,west,9.6
2021/08/10,16:40,3.8,west-northwest,10.7
2021/08/10,16:50,3.8,west-northwest,11.0
2021/08/10,17:00,3.9,west-northwest,10.2
2021/08/10,17:10,3.7,west-northwest,9.1
2021/08/10,17:20,3.8,west-northwest,8.1
2021/08/10,17:30,3.8,west-northwest,9.4
2021/08/10,17:40,3.9,west,6.5
2021/08/10,17:50,3.8,west-northwest,7.1
2021/08/10,18:00,3.9,west-northwest,6.7
2021/08/10,18:10,3.9,west-northwest,6.5
2021/08/10,18:20,3.9,west-northwest,5.3
2021/08/10,18:30,3.8,northwest,7.2
2021/08/10,18:40,3.8,west-northwest,6.3
2021/08/10,18:50,3.8,west-northwest,8.5
2021/08/10,19:00,3.8,northwest,5.4
2021/08/10,19:10,4.0,northeast,2.5
2021/08/10,19:20,3.9,east-northeast,3.6
2021/08/10,19:30,3.9,north,2.3
2021/08/10,19:40,3.8,north-northwest,2.3
2021/08/10,19:50,3.8,west-northwest,2.9
2021/08/10,20:00,3.8,west-northwest,1.7
2021/08/10,20:10,3.9,west-southwest,1.5
2021/08/10,20:20,3.9,southwest,1.1
2021/08/10,20:30,3.9,west-southwest,2.0
2021/08/10,20:40,4.0,west,2.0
2021/08/10,20:50,3.8,west,1.7
2021/08/10,21:00,3.8,west-southwest,2.3
2021/08/10,21:10,4.0,west-southwest,2.8
2021/08/10,21:20,3.8,west-southwest,2.3
2021/08/10,21:30,3.9,west,3.9
2021/08/10,21:40,3.8,west,5.3
2021/08/10,21:50,3.7,west-southwest,2.2
2021/08/10,22:00,3.8,west,1.1
2021/08/10,22:10,3.9,west-southwest,2.3
2021/08/10,22:20,3.8,west,4.2
2021/08/10,22:30,3.9,west,4.7
2021/08/10,22:40,3.9,west,5.0
2021/08/10,22:50,3.8,west-southwest,5.4
2021/08/10,23:00,3.8,west-southwest,4.4
2021/08/10,23:10,3.7,west,3.6
2021/08/10,23:20,3.7,west,3.8
2021/08/10,23:30,3.9,west,4.1
2021/08/10,23:40,4.0,west,4.6
2021/08/10,23:50,3.7,west-northwest,6.7
